Regional Weather Roundup
Issued by NWS Wakefield, VA

Home | Current Version | Previous Version | Text Only | Print | Product List | Glossary Off
Versions: 1 2 3 4 5 6 7 8 9 10 11 12 13 14 15 16 17 18 19 20 21 22 23 24 25 26 27 28 29 30 31 32 33 34 35 36 37 38 39 40 41 42 43 44 45 46 47 48 49 50

335
ASUS41 KAKQ 140015
RWRAKQ

REGIONAL WEATHER ROUNDUP
NATIONAL WEATHER SERVICE WAKEFIELD VA
700 PM EST SAT FEB 13 2016

Note: "fair" indicates few or no clouds below 12,000 feet with no
significant weather and/or obstructions to visibility. * = Denotes
station may not report precipitation (e.g., rain,snow,etc.),
thunder or fog.

VAZ042-051-052>054-056-140100-
NORTHERN VIRGINIA

CITY           SKY/WX    TMP DP  RH WIND       PRES   REMARKS
WASH NATIONAL  FAIR      18  -6  34 NW15G24   30.42R WCI   4
DULLES         FAIR      16  -6  37 NW22G28   30.40R WCI  -2
FORT BELVOIR   FAIR      18  -8  31 NW14G28   30.41R WCI   4
QUANTICO       FAIR      20  -6  31 N9G26     30.44R
FREDERICKSBRG* FAIR      19  -4  35 NW9       30.41R
STAFFORD*      FAIR      17  -7  35 NW9       30.45R
WARRENTON      FAIR      18  -1  42 NW12      30.39R WCI   6
CULPEPER*      FAIR      17  -7  34 NW9G17    30.41R
MANASSAS*      CLEAR     18  -4  38 NW7G23    30.41R
LEESBURG*      MOCLDY    18   0  45 NW13G22   30.40R WCI   4
WINCHESTER     FAIR      16  -4  41 W13       30.37R WCI   2
FRONT ROYAL*   FAIR      14  -6  41 NW7       30.37R
LURAY*         FAIR      14  -6  41 NW12G22   30.37R WCI   0
$$

VAZ048-049-060>072-079>083-140100-
CENTRAL AND SOUTH CENTRAL VIRGINIA

CITY           SKY/WX    TMP DP  RH WIND       PRES   REMARKS
RICHMOND       FAIR      22  -5  30 N14       30.37R WCI   9
CHESTERFIELD*  FAIR      25  -9  22 N8        30.38R
PETERSBURG*    FAIR      26 -15  16 NW6       30.37R
HANOVER        FAIR      21  -7  28 NW8       30.40R
TAPPAHANNOCK*  FAIR      22  -5  30 NW7       30.39R
QUINTON*       FAIR      23  -5  28 N9        30.37R
CHARLOTTSVILLE FAIR      19  -8  30 N6        30.37R
GORDONSVILLE*  FAIR      19  -6  31 NW6       30.38R
ORANGE*        FAIR      19  -4  35 NW5       30.40R
LOUISA*        FAIR      19  -6  32 N6        30.36R
BUMPASS*       FAIR      20  -5  32 N7        30.38R
FARMVILLE*     FAIR      25 -10  21 NW3       30.36R
CREWE*         FAIR      24  -5  27 NW9       30.36R
FORT PICKETT*  FAIR      24  -9  23 NW10G20   30.35R WCI  13
CHASE CITY*    FAIR      24  -7  26 NW5       30.37R
CLARKSVILLE*   FAIR      27  -4  26 NW6       30.38R
SOUTH HILL*    FAIR      24  -4  29 W5        30.42R
LAWRENCEVILLE* FAIR      25  -5  27 W3        30.35R
EMPORIA*       FAIR      27  -4  26 W5        30.38R
$$

VAZ088>098-140100-
SOUTHEAST VIRGINIA

CITY           SKY/WX    TMP DP  RH WIND       PRES   REMARKS
NORFOLK        FAIR      28  -6  22 NW12G25   30.33R WCI  18
VIRGINIA BEACH FAIR      30   0  27 NW18      30.33R WCI  18
NORFOLK NAVAL  FAIR      28  -2  27 NW20G28   30.35R WCI  15
WEST POINT*    FAIR      23  -7  26 NW9G20    30.39R
SALUDA*        FAIR      22  -1  36 NW14G21   30.37R WCI   9
NEWPORT NEWS   FAIR      25  -1  32 N13       30.35R WCI  14
LANGLEY AFB    FAIR      25  -1  31 NW15      30.33R WCI  13
FORT EUSTIS    FAIR      26   0  32 N13G18    30.34R WCI  15
WILLIAMSBURG*  FAIR      27   1  33 N10G21    30.37R WCI  17
HR EXEC AP*    FAIR      27  -2  28 N6        30.35R
FRANKLIN*      FAIR      27  -4  26 W10       30.36R WCI  17
US460-WAKEFLD  FAIR      27  -6  23 N6        30.35R
$$

VAZ020-022-025-037-045-140100-
WEST CENTRAL AND SOUTHWEST VIRGINIA

CITY           SKY/WX    TMP DP  RH WIND       PRES   REMARKS
STAUNTON*      FAIR      19  -8  31 NW6       30.36R
WAYNESBORO*    FAIR      15 -12  29 NW13G20   30.30R WCI   0
HOT SPRINGS VA FAIR       4  -8  58 NW16G24   30.08R WCI -15
LYNCHBURG      FAIR      19  -8  30 W5        30.37R
DANVILLE       FAIR      24  -3  30 NW8       30.39R
SOUTH BOSTON*  FAIR      24  -6  26 NW9G17    30.39R
MARTINSVILLE   FAIR      19  -4  35 NW8       30.40R
ROANOKE        FAIR      18  -7  32 NW17G23   30.38R WCI   3
BLACKSBURG     FAIR      14  -1  49 NW10G17   30.33R WCI   2
DUBLIN*        FAIR      16   0  49 NW10G22   30.33R WCI   3
MARION*        FAIR      15  -1  50 W10G20    30.32R WCI   2
HILLSVILLE*    FAIR      13  -2  51 NW15G23   30.23R WCI  -3
RICHLANDS*     FAIR      12  -3  50 NW7       30.31R
WISE*          FAIR      14  -4  44 NW3       30.33R
ABINGDON*      FAIR      20  -1  41 N5        30.35R
$$

MDZ021>025-VAZ099-100-140100-
SOUTHERN MARYLAND AND THE DELMARVA PENINSULA

CITY           SKY/WX    TMP DP  RH WIND       PRES   REMARKS
PATUXENT RIVER CLEAR     20  -5  33 NW24G35   30.38R WCI   3
BAY BRIDGE APT   N/A     19   0  42 NW20G29   30.38R WCI   4
LEONARDTOWN    CLEAR     19  -8  30 W7G20     30.39R
DOVER          CLEAR     17  -4  39 NW16G22   30.33R WCI   1
GEORGETOWN     CLEAR     18  -2  41 NW10G24   30.35R WCI   6
EASTON         NOT AVBL
CAMBRIDGE      MOCLDY    19  -6  32 NW14G24   30.36R WCI   6
SALISBURY      PTCLDY    19  -3  38 NW20G28   30.35R WCI   3
OCEAN CITY     CLEAR     18  -1  43 NW15G22   30.34R WCI   4
WALLOPS ISLAND FAIR      20  -2  38 NW15G23   30.36R WCI   6
ACCOMACK*      FAIR      23  -2  33 NW16G25   30.35R WCI  10
$$

NCZ012>017-030>032-140100-
NORTH CENTRAL AND EASTERN NORTH CAROLINA

CITY           SKY/WX    TMP DP  RH WIND       PRES   REMARKS
ROANOKE RAPIDS FAIR      28   0  29 NW6       30.37R
RALEIGH        CLEAR     28  -3  26 VRB5      30.37R
ELIZABETH CITY CLEAR     27   5  39 W12       30.34R WCI  17
AHOSKIE*       CLEAR     27  -1  28 W3        30.36R
EDENTON*       CLEAR     31   3  29 NW7       30.35R
CURRITUCK*     CLEAR     28   3  34 N6        30.34R
KILL DEVIL HLS CLEAR     28   2  32 CALM      30.31R
MANTEO         CLEAR     29   6  36 N12       30.32R WCI  20
CAPE HATTERAS  CLEAR     32   8  36 NW14G25   30.31R WCI  22
TARBORO*       FAIR      29   0  29 NW5       30.38R
GOLDSBORO      CLEAR     32   0  25 NW8       30.35R
WASHINGTON     CLEAR     29   1  30 NW9       30.36R
GREENVILLE     CLEAR     30   3  31 N3        30.37R
NEW BERN       CLEAR     30   6  36 NW7       30.37R
WILMINGTON     CLEAR     33   8  35 N6        30.35R
$$

VAZ048-140100-
ELSEWHERE

CITY           SKY/WX    TMP DP  RH WIND       PRES   REMARKS
HARRISBURG PA  MOCLDY    14  -2  49 NW22G30   30.34R WCI  -4
BALTIMORE      PTCLDY    16  -5  39 NW16      30.38R WCI   1
ANNAPOLIS      PTCLDY    19   1  45 W15G23    30.39R WCI   5
ANDREWS AFB    FAIR      17  -6  35 NW17G26   30.37R WCI   1
PHILADELPHIA   PTCLDY    15 -12  29 NW15      30.34R WCI   0
HENDERSON NC   CLEAR     25  -6  25 NW7       30.37R
GREENSBORO     CLEAR     25  -3  29 N6        30.35R
ROCKY MOUNT    CLEAR     28   2  32 NW7       30.37R
$$

VAZ100-140100-
MARINE

STATION/POSITION TIME  TEMP    WIND        PRES    WAVE   SWELL
                       AIR SEA DIR/SP/G            HT/PER HT/PER
                 (UTC) (F)     (DEG/KT/KT) (MB)    (FT/S) (FT/S)
BRANDYWINE LGT   2300   18                 1025.8R
CAPE MAY NJ      2300   19 33              1025.3R
LEWES DE         2300   20 36              1026.1R
15NM E FENWICK I 2350   22 43              1026.2R   6/ 6
OCEAN-CITY-INLET 2300   20 37              1025.4R
WACHAPREAGUE VA  2300   23 35              1026.6R
THOMAS POINT MD  0000   18 36  320/ 19/ 24 1029.5
GOOSES REEF MD   2300   22 37  320/ 19/ 27 1028.5R   3/ 4
COVE POINT MD    2300   20                 1028.3R
SOLOMONS ISLAND  2300   21 38                N/A
BISHOPS HEAD MD  2300   22 31              1026.8R
PINEY POINT MD   2300          340/ 24/ 26   N/A
POTOMAC MD       2300   23 38  340/ 23/ 29 1026.4R   3/ 4
CAMBRIDGE MD     2300   21 35              1026.8R
LEWISETTA VA     2300   23 36              1027.7R
RAPPAHANNOCK LGT 2300                      1026.6R
STINGRAY PT      2300   26 38  350/ 19/ 23 1026.6R   2/ 3
YORK RVR RNG VA  2300   28                 1025.9R
YORKTOWN VA      2300   28 40              1026.5R
JAMESTOWN VA     2300   27 40  330/ 12/ 17   N/A     1/ 3
DOMINION TERM VA 2300   29                 1026.3R
KIPTOPEKE VA     2300      37                N/A
CHES BAY BRIDGE  2300   29 40              1025.9R
CAPE HENRY VA    2300   29                   N/A
CHESAPEAKE LGHT  2300   27     340/ 22/ 25 1026.4R
WILLOUBY STN VA  2300   29                 1027.2R
CAPE HENRY BUOY  2328      43                N/A     4/ 4
1ST LANDING BUOY 2300      40                N/A     3/ 3
CAPE CHARLES BUO 2326      41                N/A     4/ 3   2/11
OFFSHORE WE BUOY 2321      45                N/A     6/ 6   2/11
64NM E OF VA BCH 2350   30 49  330/ 25/ 31 1025.4R   9/ 7
DUCK PIER NC     2300   31                 1025.2R
44100 DUCK FRF   2324      45                N/A     5/ 6
44056 DUCK FRF   2311      41                N/A     4/ 6
OREGON INLET NC  2300   30 39              1025.8R
HATTERAS NC      2300   33 43              1025.2R
DIAMOND SHLS NC  2350   36 72  320/ 21/ 29 1025.9R   5/ 8   3/ 8
$$




USA.gov is the U.S. government's official web portal to all federal, state and local government web resources and services.